Terminal Aerodrome Forecast
Issued by NWS Charleston, WV

Current Version | Previous Version | Text Only | Print | Product List | Glossary Off
Versions: 1 2 3 4 5 6 7 8 9 10 11 12 13 14 15 16 17 18 19 20 21 22 23 24 25 26 27

000
FTUS41 KRLX 191100
TAFPKB
TAF
KPKB 191131Z 1912/2012 31006KT P6SM SCT022 BKN040
     FM191400 30004KT P6SM SCT025
     FM191600 26005KT P6SM SKC
     FM192300 00000KT P6SM SCT250=

USA.gov is the U.S. government's official web portal to all federal, state and local government web resources and services.